"SCET";"TARGET";"ELECTRON_DENSITY";"ERROR_FLAG";"ELECTRON_DENSITY_ERROR";"FREQ_FCE";"MEASURED_VALUE";"MEASURED_ITEM";"FREQ_PLASMA";"FREQ_UPPER_HYBRID";"FREQ_R_EQUALS_ZERO";"FREQ_L_EQUALS_ZERO";"ORBIT_NUMBER";"SATURN_RADIUS";"SATURN_IAU_LONGITUDE";"SATURN_SLS4_S_LONGITUDE";"SATURN_SLS4_N_LONGITUDE";"SATURN_SLS5_S_LONGITUDE";"SATURN_SLS5_N_LONGITUDE";"SATURN_LOCAL_TIME";"SATURN_KRONOGRAPHIC_LATITUDE";"SATURN_MAGNETIC_LATITUDE";"SATURN_L";"SATURN_L_OFFSET";"SATURN_SOLAR_EQUATORIAL_X";"SATURN_SOLAR_EQUATORIAL_Y";"SATURN_SOLAR_EQUATORIAL_Z";"SATURN_ALTITUDE";"ENCELADUS_ENCOUNTER_NUMBER";"ENCELADUS_RADIUS";"ENCELADUS_COROTATIONAL_X";"ENCELADUS_COROTATIONAL_Y";"ENCELADUS_COROTATIONAL_Z";"ENCELADUS_TRUE_ANOMALY";"ENCELADUS_PERIAPSIS_TIME";"JUPITER_RADIUS";"JUPITER_SYSTEMIII_LONGITUDE";"JUPITER_MAGNETIC_LATITUDE";"JUPITER_MAGNETIC_LOCAL_TIME";"JUPITER_L";"IO_PHASE";"EARTH_RADIUS";"EARTH_MAGNETIC_LATITUDE";"EARTH_LOCAL_TIME";"EARTH_L"
"[UTC]";"[0=Saturn, 1=Enceladus, 2=Jupiter, 3=Earth]";"[cm-3]";"[0=automated, 1=manual]";"[normalized density error]";"[Hz]";"[Hz]";"[0=upper hybrid frequency, 1=plasma frequency cutoff]";"[Hz]";"[Hz]";"[Hz]";"[Hz}";"[0, A, B, C, 3, 4, ... , 292, 293]";"[Rs where 1Rs=60268km]";"[degrees]";"[degrees]";"[degrees]";"[degrees]";"[degrees]";"[hours]";"[degrees]";"[degrees where offset=2293km north]";"[Rs where 1Rs=60268km]";"[Rs where 1Rs=60268km and offset=2293km north]";"[Rs where 1Rs=60268km]";"[Rs where 1Rs=60268km]";"[Rs where 1Rs=60268km]";"[km where ellipsoid a,b=60268km and c=54364km]";"[E0, E1, E2, ... , E21, E22]";"[Renc where 1Renc=252.1km]";"[Renc where 1Renc=252.1km]";"[Renc where 1Renc=252.1km]";"[Renc where 1Renc=252.1km]";"[degrees]";"[UTC]";"[Rj where 1Rj=71492km]";"[degrees]";"[degrees using JRM09 model]";"[hours using JRM09 model]";"[Rj where 1Rj=71492km]";"[degrees]";"[Re where 1Re=6378.1366km]";"[degrees]";"[hours]";"[Re where 1Re=6378.1366km]"
2010-07-24T19:57:17.395Z;0;1.8850e+01;0;     0.132;  2205.336;  39051.926; 0;  38989.605;  39051.926;  40107.863;  37902.527;135;   6.085; 154.835;;; 257.609; 241.409;   0.695;  -3.744;  -4.102;   6.111;   6.081;  -5.972;  -1.099;  -0.397;;;;;;;;;;;;;;;;;;
2010-07-24T19:58:21.393Z;0;2.1260e+01;0;     0.124;  2218.804;  41460.637; 0;  41401.223;  41460.637;  42525.488;  40306.684;135;   6.076; 155.331;;; 258.101; 241.901;   0.702;  -3.739;  -4.097;   6.102;   6.072;  -5.961;  -1.108;  -0.396;;;;;;;;;;;;;;;;;;
2010-07-24T19:59:09.393Z;0;2.1740e+01;0;     0.128;  2226.644;  41932.211; 0;  41873.051;  41932.211;  43001.172;  40774.527;135;   6.069; 155.703;;; 258.471; 242.271;   0.707;  -3.735;  -4.094;   6.095;   6.066;  -5.953;  -1.115;  -0.395;;;;;;;;;;;;;;;;;;
2010-07-24T19:59:25.393Z;0;2.0140e+01;0;     0.117;  2226.644;  40357.680; 0;  40296.207;  40357.680;  41424.906;  39198.262;135;   6.067; 155.827;;; 258.594; 242.394;   0.709;  -3.734;  -4.093;   6.093;   6.063;  -5.950;  -1.117;  -0.395;;;;;;;;;;;;;;;;;;
2010-07-24T20:00:29.393Z;0;2.3190e+01;0;     0.093;  2241.736;  43303.797; 0;  43245.734;  43303.797;  44381.125;  42139.387;135;   6.058; 156.323;;; 259.086; 242.886;   0.716;  -3.729;  -4.088;   6.084;   6.054;  -5.939;  -1.127;  -0.394;;;;;;;;;;;;;;;;;;
2010-07-24T20:00:45.393Z;0;2.3690e+01;0;     0.123;  2241.736;  43764.445; 0;  43706.992;  43764.445;  44842.230;  42600.496;135;   6.056; 156.447;;; 259.209; 243.009;   0.718;  -3.728;  -4.087;   6.081;   6.052;  -5.936;  -1.129;  -0.394;;;;;;;;;;;;;;;;;;
2010-07-24T20:01:01.393Z;0;2.2260e+01;0;     0.110;  2254.140;  42424.812; 0;  42364.887;  42424.812;  43506.945;  41252.805;135;   6.053; 156.571;;; 259.332; 243.132;   0.719;  -3.727;  -4.086;   6.079;   6.050;  -5.934;  -1.131;  -0.393;;;;;;;;;;;;;;;;;;
2010-07-24T20:01:17.393Z;0;2.2420e+01;0;     0.134;  2254.140;  42578.184; 0;  42518.473;  42578.184;  43660.480;  41406.340;135;   6.051; 156.694;;; 259.455; 243.255;   0.721;  -3.725;  -4.085;   6.077;   6.048;  -5.931;  -1.134;  -0.393;;;;;;;;;;;;;;;;;;
2010-07-24T20:01:33.393Z;0;2.2950e+01;0;     0.113;  2254.140;  43077.859; 0;  43018.844;  43077.859;  44160.676;  41906.535;135;   6.049; 156.818;;; 259.578; 243.378;   0.723;  -3.724;  -4.083;   6.075;   6.045;  -5.928;  -1.136;  -0.393;;;;;;;;;;;;;;;;;;
2010-07-24T20:01:49.393Z;0;2.3130e+01;0;     0.108;  2254.140;  43247.320; 0;  43188.535;  43247.320;  44330.309;  42076.168;135;   6.047; 156.942;;; 259.701; 243.501;   0.725;  -3.723;  -4.082;   6.072;   6.043;  -5.926;  -1.138;  -0.393;;;;;;;;;;;;;;;;;;
2010-07-24T20:02:05.393Z;0;2.2910e+01;0;     0.128;  2263.912;  43042.414; 0;  42982.836;  43042.414;  44129.695;  41865.781;135;   6.044; 157.066;;; 259.824; 243.624;   0.727;  -3.721;  -4.081;   6.070;   6.041;  -5.923;  -1.141;  -0.392;;;;;;;;;;;;;;;;;;
2010-07-24T20:02:21.391Z;0;2.3660e+01;0;     0.125;  2263.912;  43739.828; 0;  43681.199;  43739.828;  44827.820;  42563.910;135;   6.042; 157.189;;; 259.947; 243.747;   0.728;  -3.720;  -4.080;   6.068;   6.039;  -5.920;  -1.143;  -0.392;;;;;;;;;;;;;;;;;;
2010-07-24T20:02:37.391Z;0;2.2910e+01;0;     0.133;  2263.912;  43041.680; 0;  42982.102;  43041.680;  44128.957;  41865.047;135;   6.040; 157.313;;; 260.070; 243.870;   0.730;  -3.719;  -4.079;   6.065;   6.036;  -5.917;  -1.145;  -0.392;;;;;;;;;;;;;;;;;;
2010-07-24T20:02:53.391Z;0;2.3900e+01;0;     0.123;  2263.912;  43961.750; 0;  43903.418;  43961.750;  45049.965;  42786.055;135;   6.038; 157.437;;; 260.193; 243.993;   0.732;  -3.718;  -4.078;   6.063;   6.034;  -5.915;  -1.147;  -0.391;;;;;;;;;;;;;;;;;;
2010-07-24T20:03:09.391Z;0;2.5120e+01;0;     0.140;  2277.296;  45064.078; 0;  45006.500;  45064.078;  46159.551;  43882.254;135;   6.035; 157.560;;; 260.315; 244.115;   0.734;  -3.716;  -4.076;   6.061;   6.032;  -5.912;  -1.150;  -0.391;;;;;;;;;;;;;;;;;;
2010-07-24T20:03:25.391Z;0;2.3750e+01;0;     0.122;  2277.296;  43825.828; 0;  43766.621;  43825.828;  44920.078;  42642.781;135;   6.033; 157.684;;; 260.438; 244.238;   0.735;  -3.715;  -4.075;   6.059;   6.030;  -5.909;  -1.152;  -0.391;;;;;;;;;;;;;;;;;;
2010-07-24T20:03:41.391Z;0;2.3630e+01;0;     0.121;  2277.296;  43714.234; 0;  43654.875;  43714.234;  44808.371;  42531.074;135;   6.031; 157.808;;; 260.561; 244.361;   0.737;  -3.714;  -4.074;   6.056;   6.027;  -5.907;  -1.154;  -0.391;;;;;;;;;;;;;;;;;;
2010-07-24T20:03:57.391Z;0;2.3830e+01;0;     0.122;  2277.296;  43898.184; 0;  43839.074;  43898.184;  44992.508;  42715.211;135;   6.029; 157.931;;; 260.684; 244.484;   0.739;  -3.712;  -4.073;   6.054;   6.025;  -5.904;  -1.157;  -0.390;;;;;;;;;;;;;;;;;;
2010-07-24T20:04:13.391Z;0;2.3870e+01;0;     0.131;  2287.684;  43933.738; 0;  43874.137;  43933.738;  45032.887;  42745.203;135;   6.026; 158.055;;; 260.807; 244.607;   0.741;  -3.711;  -4.072;   6.052;   6.023;  -5.901;  -1.159;  -0.390;;;;;;;;;;;;;;;;;;
2010-07-24T20:04:29.391Z;0;2.3660e+01;0;     0.108;  2287.684;  43739.848; 0;  43679.980;  43739.848;  44838.797;  42551.113;135;   6.024; 158.178;;; 260.929; 244.729;   0.742;  -3.710;  -4.071;   6.050;   6.021;  -5.898;  -1.161;  -0.390;;;;;;;;;;;;;;;;;;
2010-07-24T20:04:45.391Z;0;2.3390e+01;0;     0.090;  2287.684;  43490.672; 0;  43430.461;  43490.672;  44589.363;  42301.680;135;   6.022; 158.302;;; 261.052; 244.852;   0.744;  -3.708;  -4.069;   6.047;   6.018;  -5.896;  -1.164;  -0.389;;;;;;;;;;;;;;;;;;
2010-07-24T20:05:01.391Z;0;2.3890e+01;0;     0.134;  2302.524;  43956.137; 0;  43895.789;  43956.137;  45062.145;  42759.621;135;   6.020; 158.426;;; 261.175; 244.975;   0.746;  -3.707;  -4.068;   6.045;   6.016;  -5.893;  -1.166;  -0.389;;;;;;;;;;;;;;;;;;
2010-07-24T20:05:17.391Z;0;2.4220e+01;0;     0.126;  2302.524;  44257.410; 0;  44197.473;  44257.410;  45363.727;  43061.203;135;   6.018; 158.549;;; 261.297; 245.097;   0.748;  -3.706;  -4.067;   6.043;   6.014;  -5.890;  -1.168;  -0.389;;;;;;;;;;;;;;;;;;
2010-07-24T20:05:33.391Z;0;2.3380e+01;0;     0.089;  2302.524;  43485.457; 0;  43424.457;  43485.457;  44590.977;  42288.453;135;   6.015; 158.673;;; 261.420; 245.220;   0.750;  -3.705;  -4.066;   6.040;   6.012;  -5.887;  -1.171;  -0.389;;;;;;;;;;;;;;;;;;
2010-07-24T20:05:49.391Z;0;2.3640e+01;0;     0.106;  2302.524;  43723.430; 0;  43662.762;  43723.430;  44829.199;  42526.676;135;   6.013; 158.796;;; 261.543; 245.343;   0.751;  -3.703;  -4.065;   6.038;   6.009;  -5.885;  -1.173;  -0.388;;;;;;;;;;;;;;;;;;
2010-07-24T20:06:05.391Z;0;2.3910e+01;0;     0.118;  2314.340;  43972.145; 0;  43911.199;  43972.145;  45083.613;  42769.273;135;   6.011; 158.919;;; 261.665; 245.465;   0.753;  -3.702;  -4.064;   6.036;   6.007;  -5.882;  -1.175;  -0.388;;;;;;;;;;;;;;;;;;
2010-07-24T20:06:21.391Z;0;2.4890e+01;0;     0.156;  2314.340;  44859.266; 0;  44799.527;  44859.266;  45971.637;  43657.297;135;   6.009; 159.043;;; 261.788; 245.588;   0.755;  -3.701;  -4.062;   6.034;   6.005;  -5.879;  -1.177;  -0.388;;;;;;;;;;;;;;;;;;
2010-07-24T20:06:37.391Z;0;2.3660e+01;0;     0.100;  2314.340;  43742.395; 0;  43681.129;  43742.395;  44853.621;  42539.281;135;   6.006; 159.166;;; 261.911; 245.711;   0.757;  -3.699;  -4.061;   6.031;   6.003;  -5.876;  -1.180;  -0.388;;;;;;;;;;;;;;;;;;
2010-07-24T20:06:53.391Z;0;2.3250e+01;0;     0.083;  2314.340;  43364.129; 0;  43302.328;  43364.129;  44474.957;  42160.617;135;   6.004; 159.290;;; 262.033; 245.833;   0.758;  -3.698;  -4.060;   6.029;   6.000;  -5.874;  -1.182;  -0.387;;;;;;;;;;;;;;;;;;
2010-07-24T20:07:09.389Z;0;2.3370e+01;0;     0.091;  2324.728;  43473.391; 0;  43411.188;  43473.391;  44589.113;  42264.383;135;   6.002; 159.413;;; 262.156; 245.956;   0.760;  -3.697;  -4.059;   6.027;   5.998;  -5.871;  -1.184;  -0.387;;;;;;;;;;;;;;;;;;
2010-07-24T20:07:25.389Z;0;2.4800e+01;0;     0.149;  2324.728;  44784.617; 0;  44724.238;  44784.617;  45901.707;  43576.977;135;   6.000; 159.536;;; 262.278; 246.078;   0.762;  -3.695;  -4.058;   6.025;   5.996;  -5.868;  -1.187;  -0.387;;;;;;;;;;;;;;;;;;
2010-07-24T20:07:41.389Z;0;2.5220e+01;0;     0.137;  2324.728;  45158.703; 0;  45098.824;  45158.703;  46276.168;  43951.438;135;   5.997; 159.660;;; 262.401; 246.201;   0.764;  -3.694;  -4.056;   6.022;   5.994;  -5.866;  -1.189;  -0.386;;;;;;;;;;;;;;;;;;
2010-07-24T20:07:57.389Z;0;2.3750e+01;0;     0.113;  2324.728;  43821.262; 0;  43759.555;  43821.262;  44937.355;  42612.625;135;   5.995; 159.783;;; 262.523; 246.323;   0.766;  -3.693;  -4.055;   6.020;   5.991;  -5.863;  -1.191;  -0.386;;;;;;;;;;;;;;;;;;
2010-07-24T20:08:13.389Z;0;2.3500e+01;0;     0.142;  2334.136;  43597.125; 0;  43534.598;  43597.125;  44717.305;  42383.168;135;   5.993; 159.906;;; 262.646; 246.446;   0.767;  -3.691;  -4.054;   6.018;   5.989;  -5.860;  -1.194;  -0.386;;;;;;;;;;;;;;;;;;
2010-07-24T20:08:29.389Z;0;2.4760e+01;0;     0.143;  2334.136;  44740.395; 0;  44679.465;  44740.395;  45861.773;  43527.637;135;   5.991; 160.030;;; 262.768; 246.568;   0.769;  -3.690;  -4.053;   6.015;   5.987;  -5.857;  -1.196;  -0.386;;;;;;;;;;;;;;;;;;
2010-07-24T20:08:45.389Z;0;2.4740e+01;0;     0.131;  2334.136;  44729.453; 0;  44668.512;  44729.453;  45850.820;  43516.688;135;   5.988; 160.153;;; 262.890; 246.690;   0.771;  -3.689;  -4.052;   6.013;   5.985;  -5.855;  -1.198;  -0.385;;;;;;;;;;;;;;;;;;
2010-07-24T20:09:01.389Z;0;2.5010e+01;0;     0.151;  2345.840;  44965.812; 0;  44904.582;  44965.812;  46092.816;  43746.977;135;   5.986; 160.276;;; 263.013; 246.813;   0.773;  -3.687;  -4.050;   6.011;   5.983;  -5.852;  -1.200;  -0.385;;;;;;;;;;;;;;;;;;
2010-07-24T20:09:17.389Z;0;2.4840e+01;0;     0.148;  2345.840;  44817.191; 0;  44755.754;  44817.191;  45944.043;  43598.203;135;   5.984; 160.399;;; 263.135; 246.935;   0.775;  -3.686;  -4.049;   6.009;   5.980;  -5.849;  -1.203;  -0.385;;;;;;;;;;;;;;;;;;
2010-07-24T20:09:33.389Z;0;2.3770e+01;0;     0.115;  2345.840;  43845.953; 0;  43783.156;  43845.953;  44971.781;  42625.941;135;   5.982; 160.522;;; 263.258; 247.058;   0.776;  -3.685;  -4.048;   6.006;   5.978;  -5.846;  -1.205;  -0.384;;;;;;;;;;;;;;;;;;
2010-07-24T20:10:21.389Z;0;2.4740e+01;0;     0.151;  2364.180;  44731.254; 0;  44668.734;  44731.254;  45866.461;  43502.281;135;   5.975; 160.892;;; 263.625; 247.426;   0.782;  -3.681;  -4.044;   6.000;   5.971;  -5.838;  -1.212;  -0.384;;;;;;;;;;;;;;;;;;
2010-07-24T20:10:53.389Z;0;2.4000e+01;0;     0.117;  2364.180;  44052.641; 0;  43989.156;  44052.641;  45187.125;  42822.945;135;   5.970; 161.138;;; 263.869; 247.674;   0.785;  -3.678;  -4.042;   5.995;   5.967;  -5.833;  -1.217;  -0.383;;;;;;;;;;;;;;;;;;
2010-07-24T20:11:09.389Z;0;2.3780e+01;0;     0.110;  2368.352;  43855.395; 0;  43791.398;  43855.395;  44991.582;  42623.230;135;   5.968; 161.261;;; 263.991; 247.798;   0.787;  -3.677;  -4.041;   5.993;   5.965;  -5.830;  -1.219;  -0.383;;;;;;;;;;;;;;;;;;
2010-07-24T20:11:25.389Z;0;2.5060e+01;0;     0.154;  2368.352;  45012.816; 0;  44950.469;  45012.816;  46150.238;  43781.887;135;   5.966; 161.384;;; 264.114; 247.922;   0.789;  -3.675;  -4.040;   5.991;   5.962;  -5.827;  -1.221;  -0.382;;;;;;;;;;;;;;;;;;
2010-07-24T20:11:41.389Z;0;2.4700e+01;0;     0.142;  2368.352;  44693.020; 0;  44630.223;  44693.020;  45830.105;  43461.754;135;   5.964; 161.507;;; 264.236; 248.046;   0.791;  -3.674;  -4.038;   5.988;   5.960;  -5.824;  -1.223;  -0.382;;;;;;;;;;;;;;;;;;
2010-07-24T20:14:37.387Z;0;2.4150e+01;0;     0.100;  2416.428;  44195.031; 0;  44128.922;  44195.031;  45353.672;  42937.242;135;   5.939; 162.859;;; 265.579; 249.412;   0.811;  -3.659;  -4.025;   5.963;   5.935;  -5.794;  -1.249;  -0.379;;;;;;;;;;;;;;;;;;
2010-07-24T20:14:53.387Z;0;2.3580e+01;0;     0.111;  2416.428;  43672.684; 0;  43605.781;  43672.684;  44830.730;  42414.301;135;   5.937; 162.982;;; 265.701; 249.537;   0.813;  -3.657;  -4.024;   5.961;   5.933;  -5.791;  -1.251;  -0.379;;;;;;;;;;;;;;;;;;
2010-07-24T20:15:09.387Z;0;2.4820e+01;0;     0.123;  2430.736;  44801.125; 0;  44735.137;  44801.125;  45967.008;  43536.273;135;   5.935; 163.105;;; 265.822; 249.662;   0.814;  -3.656;  -4.022;   5.959;   5.931;  -5.788;  -1.253;  -0.378;;;;;;;;;;;;;;;;;;
2010-07-24T20:15:25.387Z;0;2.5290e+01;0;     0.120;  2430.736;  45223.316; 0;  45157.945;  45223.316;  46389.664;  43958.926;135;   5.932; 163.228;;; 265.944; 249.786;   0.816;  -3.655;  -4.021;   5.956;   5.929;  -5.785;  -1.256;  -0.378;;;;;;;;;;;;;;;;;;
2010-07-24T20:15:41.387Z;0;2.5430e+01;0;     0.120;  2430.736;  45349.355; 0;  45284.164;  45349.355;  46515.840;  44085.102;135;   5.930; 163.350;;; 266.066; 249.911;   0.818;  -3.653;  -4.020;   5.954;   5.926;  -5.783;  -1.258;  -0.378;;;;;;;;;;;;;;;;;;
2010-07-24T20:15:57.387Z;0;2.4680e+01;0;     0.107;  2430.736;  44680.887; 0;  44614.719;  44680.887;  45846.637;  43415.902;135;   5.928; 163.473;;; 266.188; 250.036;   0.820;  -3.652;  -4.019;   5.952;   5.924;  -5.780;  -1.260;  -0.378;;;;;;;;;;;;;;;;;;
2010-07-24T20:16:13.387Z;0;2.3520e+01;0;     0.123;  2445.716;  43621.863; 0;  43553.250;  43621.863;  44793.270;  42347.555;135;   5.926; 163.596;;; 266.310; 250.160;   0.822;  -3.651;  -4.017;   5.950;   5.922;  -5.777;  -1.263;  -0.377;;;;;;;;;;;;;;;;;;
2010-07-24T20:16:29.385Z;0;2.5030e+01;0;     0.119;  2445.716;  44989.473; 0;  44922.945;  44989.473;  46162.445;  43716.730;135;   5.923; 163.718;;; 266.432; 250.285;   0.824;  -3.649;  -4.016;   5.947;   5.920;  -5.774;  -1.265;  -0.377;;;;;;;;;;;;;;;;;;
2010-07-24T20:16:45.385Z;0;2.5220e+01;0;     0.120;  2445.716;  45165.523; 0;  45099.258;  45165.523;  46338.691;  43892.977;135;   5.921; 163.841;;; 266.554; 250.410;   0.825;  -3.648;  -4.015;   5.945;   5.918;  -5.772;  -1.267;  -0.377;;;;;;;;;;;;;;;;;;
2010-07-24T20:17:01.385Z;0;2.5230e+01;0;     0.120;  2461.340;  45176.707; 0;  45109.605;  45176.707;  46357.062;  43895.723;135;   5.919; 163.964;;; 266.675; 250.535;   0.827;  -3.646;  -4.014;   5.943;   5.915;  -5.769;  -1.269;  -0.376;;;;;;;;;;;;;;;;;;
2010-07-24T20:17:17.385Z;0;2.5260e+01;0;     0.117;  2461.340;  45198.797; 0;  45131.730;  45198.797;  46379.176;  43917.836;135;   5.917; 164.086;;; 266.797; 250.660;   0.829;  -3.645;  -4.012;   5.941;   5.913;  -5.766;  -1.272;  -0.376;;;;;;;;;;;;;;;;;;
2010-07-24T20:17:33.385Z;0;2.5200e+01;0;     0.109;  2461.340;  45145.195; 0;  45078.047;  45145.195;  46325.516;  43864.176;135;   5.914; 164.209;;; 266.919; 250.785;   0.831;  -3.644;  -4.011;   5.938;   5.911;  -5.763;  -1.274;  -0.376;;;;;;;;;;;;;;;;;;
2010-07-24T20:17:49.385Z;0;2.4440e+01;0;     0.086;  2461.340;  44464.449; 0;  44396.273;  44464.449;  45643.996;  43182.656;135;   5.912; 164.331;;; 267.041; 250.910;   0.833;  -3.642;  -4.010;   5.936;   5.909;  -5.760;  -1.276;  -0.376;;;;;;;;;;;;;;;;;;
2010-07-24T20:18:05.385Z;0;2.4220e+01;0;     0.089;  2474.500;  44265.531; 0;  44196.312;  44265.531;  45450.879;  42976.379;135;   5.910; 164.454;;; 267.162; 251.035;   0.835;  -3.641;  -4.009;   5.934;   5.906;  -5.758;  -1.279;  -0.375;;;;;;;;;;;;;;;;;;
2010-07-24T20:18:21.385Z;0;2.5330e+01;0;     0.118;  2474.500;  45259.891; 0;  45192.195;  45259.891;  46446.379;  43971.879;135;   5.908; 164.576;;; 267.284; 251.161;   0.836;  -3.639;  -4.007;   5.932;   5.904;  -5.755;  -1.281;  -0.375;;;;;;;;;;;;;;;;;;
2010-07-24T20:18:37.385Z;0;2.4430e+01;0;     0.096;  2474.500;  44452.258; 0;  44383.332;  44452.258;  45637.824;  43163.324;135;   5.905; 164.699;;; 267.406; 251.286;   0.838;  -3.638;  -4.006;   5.929;   5.902;  -5.752;  -1.283;  -0.375;;;;;;;;;;;;;;;;;;
2010-07-24T20:18:53.385Z;0;2.5690e+01;0;     0.109;  2474.500;  45580.391; 0;  45513.172;  45580.391;  46767.234;  44292.734;135;   5.903; 164.821;;; 267.527; 251.411;   0.840;  -3.637;  -4.005;   5.927;   5.900;  -5.749;  -1.285;  -0.374;;;;;;;;;;;;;;;;;;
2010-07-24T20:19:09.385Z;0;2.5250e+01;0;     0.104;  2487.520;  45192.410; 0;  45123.898;  45192.410;  46384.797;  43897.277;135;   5.901; 164.944;;; 267.649; 251.537;   0.842;  -3.635;  -4.004;   5.925;   5.897;  -5.746;  -1.288;  -0.374;;;;;;;;;;;;;;;;;;
2010-07-24T20:19:22.281Z;0;2.4570e+01;0;     0.092;  2487.520;  44577.473; 0;  44508.016;  44577.473;  45769.148;  43281.629;135;   5.899; 165.042;;; 267.747; 251.638;   0.843;  -3.634;  -4.003;   5.923;   5.896;  -5.744;  -1.290;  -0.374;;;;;;;;;;;;;;;;;;
2010-07-24T20:19:54.281Z;0;2.4730e+01;0;     0.095;  2487.520;  44723.457; 0;  44654.227;  44723.457;  45915.305;  43427.785;135;   5.895; 165.287;;; 267.990; 251.889;   0.847;  -3.631;  -4.000;   5.918;   5.891;  -5.739;  -1.294;  -0.373;;;;;;;;;;;;;;;;;;
2010-07-24T20:20:26.281Z;0;2.5790e+01;0;     0.117;  2500.484;  45673.672; 0;  45605.176;  45673.672;  46872.551;  44372.066;135;   5.890; 165.532;;; 268.236; 252.135;   0.851;  -3.628;  -3.998;   5.914;   5.887;  -5.733;  -1.299;  -0.373;;;;;;;;;;;;;;;;;;
2010-07-24T20:22:02.280Z;0;2.6780e+01;0;     0.110;  2528.568;  46539.051; 0;  46470.309;  46539.051;  47751.789;  45223.219;135;   5.877; 166.266;;; 268.974; 252.870;   0.862;  -3.620;  -3.990;   5.900;   5.873;  -5.716;  -1.313;  -0.371;;;;;;;;;;;;;;;;;;
2010-07-24T20:22:18.280Z;0;2.6120e+01;0;     0.116;  2528.568;  45966.516; 0;  45896.918;  45966.516;  47178.609;  44650.043;135;   5.874; 166.388;;; 269.097; 252.992;   0.864;  -3.618;  -3.989;   5.898;   5.871;  -5.713;  -1.315;  -0.371;;;;;;;;;;;;;;;;;;
2010-07-24T20:22:34.280Z;0;2.6880e+01;0;     0.128;  2528.568;  46624.773; 0;  46556.156;  46624.773;  47837.605;  45309.039;135;   5.872; 166.510;;; 269.221; 253.114;   0.866;  -3.617;  -3.987;   5.896;   5.869;  -5.711;  -1.317;  -0.370;;;;;;;;;;;;;;;;;;
2010-07-24T20:22:50.280Z;0;2.5540e+01;0;     0.098;  2528.568;  45449.867; 0;  45379.477;  45449.867;  46661.367;  44132.801;135;   5.870; 166.632;;; 269.344; 253.236;   0.868;  -3.616;  -3.986;   5.893;   5.866;  -5.708;  -1.319;  -0.370;;;;;;;;;;;;;;;;;;
2010-07-24T20:23:06.280Z;0;2.8970e+01;0;     0.132;  2543.940;  48399.492; 0;  48332.590;  48399.492;  49621.293;  47077.355;135;   5.868; 166.754;;; 269.468; 253.358;   0.869;  -3.614;  -3.985;   5.891;   5.864;  -5.705;  -1.322;  -0.370;;;;;;;;;;;;;;;;;;
2010-07-24T20:24:26.279Z;0;2.5680e+01;0;     0.099;  2557.688;  45578.781; 0;  45506.961;  45578.781;  46803.770;  44246.082;135;   5.857; 167.365;;; 270.085; 253.966;   0.879;  -3.607;  -3.978;   5.880;   5.853;  -5.691;  -1.333;  -0.368;;;;;;;;;;;;;;;;;;
2010-07-24T20:24:42.279Z;0;3.0280e+01;0;     0.096;  2557.688;  49483.148; 0;  49417.004;  49483.148;  50712.391;  48154.703;135;   5.854; 167.487;;; 270.209; 254.087;   0.881;  -3.605;  -3.977;   5.878;   5.851;  -5.688;  -1.335;  -0.368;;;;;;;;;;;;;;;;;;
2010-07-24T20:26:34.278Z;0;2.7560e+01;0;     0.115;  2584.680;  47214.160; 0;  47143.359;  47214.160;  48453.410;  45868.730;135;   5.839; 168.340;;; 271.077; 254.933;   0.894;  -3.595;  -3.968;   5.862;   5.835;  -5.668;  -1.351;  -0.366;;;;;;;;;;;;;;;;;;
2010-07-24T20:26:50.278Z;0;2.9040e+01;0;     0.146;  2584.680;  48460.426; 0;  48391.449;  48460.426;  49701.043;  47116.363;135;   5.836; 168.462;;; 271.201; 255.054;   0.896;  -3.594;  -3.966;   5.859;   5.833;  -5.665;  -1.354;  -0.366;;;;;;;;;;;;;;;;;;
2010-07-24T20:27:22.278Z;0;2.7400e+01;0;     0.112;  2599.744;  47075.996; 0;  47004.156;  47075.996;  48322.000;  45722.254;135;   5.832; 168.706;;; 271.449; 255.295;   0.900;  -3.591;  -3.964;   5.855;   5.828;  -5.660;  -1.358;  -0.365;;;;;;;;;;;;;;;;;;
2010-07-24T20:27:25.381Z;0;2.7400e+01;0;     0.112;  2599.744;  47075.996; 0;  47004.156;  47075.996;  48322.000;  45722.254;135;   5.832; 168.729;;; 271.473; 255.318;   0.900;  -3.591;  -3.963;   5.854;   5.828;  -5.659;  -1.359;  -0.365;;;;;;;;;;;;;;;;;;
2010-07-24T20:27:38.278Z;0;2.7390e+01;0;     0.113;  2599.744;  47072.410; 0;  47000.566;  47072.410;  48318.410;  45718.664;135;   5.830; 168.827;;; 271.573; 255.415;   0.901;  -3.589;  -3.962;   5.853;   5.826;  -5.657;  -1.361;  -0.365;;;;;;;;;;;;;;;;;;
2010-07-24T20:27:41.381Z;0;2.7390e+01;0;     0.113;  2599.744;  47072.410; 0;  47000.566;  47072.410;  48318.410;  45718.664;135;   5.829; 168.851;;; 271.598; 255.438;   0.902;  -3.589;  -3.962;   5.852;   5.826;  -5.656;  -1.361;  -0.365;;;;;;;;;;;;;;;;;;
2010-07-24T20:27:54.278Z;0;2.7380e+01;0;     0.108;  2599.744;  47061.586; 0;  46989.723;  47061.586;  48307.570;  45707.828;135;   5.827; 168.949;;; 271.698; 255.535;   0.903;  -3.588;  -3.961;   5.850;   5.824;  -5.654;  -1.363;  -0.365;;;;;;;;;;;;;;;;;;
2010-07-24T20:27:57.381Z;0;2.7380e+01;0;     0.108;  2599.744;  47061.586; 0;  46989.723;  47061.586;  48307.570;  45707.828;135;   5.827; 168.973;;; 271.722; 255.559;   0.904;  -3.588;  -3.961;   5.850;   5.824;  -5.654;  -1.363;  -0.365;;;;;;;;;;;;;;;;;;
2010-07-24T20:28:10.277Z;0;2.6930e+01;0;     0.088;  2615.732;  46675.141; 0;  46601.789;  46675.141;  47928.004;  45312.270;135;   5.825; 169.071;;; 271.822; 255.655;   0.905;  -3.587;  -3.960;   5.848;   5.822;  -5.651;  -1.365;  -0.364;;;;;;;;;;;;;;;;;;
2010-07-24T20:29:01.381Z;0;2.9660e+01;0;     0.102;  2631.972;  48977.887; 0;  48907.117;  48977.887;  50240.805;  47608.832;135;   5.818; 169.459;;; 272.220; 256.038;   0.911;  -3.582;  -3.956;   5.841;   5.815;  -5.642;  -1.372;  -0.363;;;;;;;;;;;;;;;;;;
2010-07-24T20:30:21.381Z;0;2.8310e+01;0;     0.110;  2644.516;  47855.691; 0;  47782.566;  47855.691;  49123.117;  46478.602;135;   5.807; 170.067;;; 272.840; 256.638;   0.921;  -3.574;  -3.949;   5.830;   5.803;  -5.628;  -1.384;  -0.362;;;;;;;;;;;;;;;;;;
2010-07-24T20:30:37.379Z;0;2.7910e+01;0;     0.101;  2644.516;  47510.766; 0;  47437.109;  47510.766;  48777.793;  46133.277;135;   5.805; 170.189;;; 272.961; 256.758;   0.923;  -3.573;  -3.947;   5.827;   5.801;  -5.625;  -1.386;  -0.362;;;;;;;;;;;;;;;;;;
2010-07-24T20:30:53.379Z;0;2.8060e+01;0;     0.104;  2644.516;  47645.184; 0;  47571.734;  47645.184;  48912.367;  46267.852;135;   5.802; 170.310;;; 273.083; 256.879;   0.925;  -3.571;  -3.946;   5.825;   5.799;  -5.622;  -1.388;  -0.361;;;;;;;;;;;;;;;;;;